Regional Weather Roundup
Issued by NWS

Home | Current Version | Previous Version | Graphics & Text | Print | Product List | Glossary On
Versions: 1 2 3 4 5 6 7 8 9 10 11 12 13 14 15 16 17 18 19 20 21 22 23 24 25 26 27 28 29 30 31 32 33 34 35 36 37 38 39 40 41 42 43 44 45 46 47 48 49 50
000
ASUS45 KCYS 011110
RWRWY

WYOMING REGIONAL WEATHER ROUNDUP
NATIONAL WEATHER SERVICE CHEYENNE WY
400 AM MST SUN MAR 01 2015

NOTE:  "FAIR" INDICATES FEW OR NO CLOUDS BELOW 12,000 FEET
WITH NO SIGNIFICANT WEATHER AND/OR OBSTRUCTIONS TO VISIBILITY.

WYZ001-011200-
YELLOWSTONE NATIONAL PARK

CITY           SKY/WX    TMP DP  RH WIND       PRES   REMARKS
LK YELLOWSTONE   N/A    -15 -20  78 CALM      30.06S
W YELLOWSTONE  NOT AVBL

$$
WYZ002>013-054>058-071-098>099-011200-
NORTHERN WYOMING

CITY           SKY/WX    TMP DP  RH WIND       PRES   REMARKS
JACKSON        FAIR       3   0  85 N17       30.06R WCI -17
CODY           FAIR       9   3  78 CALM      30.14R
GREYBULL       FAIR      11   6  81 NW6       30.21R WCI   1
WORLAND        MOCLDY    20  10  65 N3        30.18S
SHERIDAN       FAIR       4  -2  76 SE5       30.19R WCI  -5
BUFFALO        FAIR       9   0  67 SW6       30.11R WCI  -1
GILLETTE       FAIR      11   7  84 SW12      30.13S WCI  -3
HULETT         FAIR      10   5  79 SW8       30.14S WCI  -1
NEWCASTLE      CLOUDY    12  10  92 CALM      30.17R

$$
WYZ014>020-022>026-101>103-011200-
CENTRAL WYOMING

CITY           SKY/WX    TMP DP  RH WIND       PRES   REMARKS
BIG PINEY      MOCLDY     9   4  80 CALM      30.04R
PINEDALE       CLOUDY    10   7  85 W6        30.03S WCI   1
DUBOIS         CLOUDY    10   5  79 NW3       30.01R
LANDER         CLOUDY    16   7  67 S5        30.10R WCI   9
RIVERTON       CLOUDY    16  10  77 CALM      30.12R
CASPER         CLOUDY    13  10  88 W5        30.11S WCI   5
DOUGLAS        CLOUDY    15  12  88 CALM      30.14R

$$
WYZ021-027>030-104>119-011200-
SOUTHERN WYOMING

CITY           SKY/WX    TMP DP  RH WIND       PRES   REMARKS
EVANSTON       CLOUDY    19  16  88 NE8       29.98S WCI   9
FORT BRIDGER   CLOUDY    18  18  98 CALM      30.04R
ROCK SPRINGS   FAIR       7   4  87 E6        30.04S WCI  -3
DIXON          CLOUDY    19  16  87 W5        30.04S WCI  12
RAWLINS        FAIR       5   0  79 N9        30.02S WCI  -9
SARATOGA       FLURRIES  10   9  92 W5        30.01S WCI   2
LARAMIE        MOCLDY     5   3  91 W5        29.96R WCI  -4
CHEYENNE       FAIR      12   8  84 NW8       30.02S WCI   0
TORRINGTON     CLOUDY    17  12  80 NW3       30.15R
PINE BLUFFS    FAIR      14  12  92 N3        30.08S

$$



USA.gov is the U.S. government's official web portal to all federal, state and local government web resources and services.